Regional Weather Roundup
Issued by NWS Grand Forks, ND

Home | Current Version | Previous Version | Graphics & Text | Print | Product List | Glossary On
Versions: 1 2 3 4 5 6 7 8 9 10 11 12 13 14 15 16 17 18 19 20 21 22 23 24 25 26 27 28 29 30 31 32 33 34 35 36 37 38 39 40 41 42 43 44 45 46 47 48 49 50
000
ASUS43 KFGF 032310
RWRFGF
PRAIRIE TO PINES  WEATHER ROUNDUP
NATIONAL WEATHER SERVICE EASTERN NORTH DAKOTA/GRAND FORKS ND
600 PM CDT TUE MAY 03 2016

 **SATELLITE DATA USED TO AUGMENT SKY COVER AT AUTOMATED STATIONS**
 *****  WEATHER ACROSS EASTERN NORTH DAKOTA  *****

CITY           SKY/WX    TMP DP  RH WIND       PRES   REMARKS
GRAND FORKS    SUNNY     66  29  24 N21G35    29.91R
GRAND FRKS AFB SUNNY     65  29  26 N22G35    29.92R
DEVILS LAKE    SUNNY     66  28  24 N22G30    29.97R
FARGO          SUNNY     69  25  19 N26G36    29.87R
WAHPETON ARPT  CLEAR     68  25  19 N22G36    29.85R
$$

 ***** WEATHER ACROSS CENTRAL AND WESTERN NORTH DAKOTA  *****

CITY           SKY/WX    TMP DP  RH WIND       PRES   REMARKS
BISMARCK       SUNNY     74  35  24 N17G25    29.98R
MINOT          SUNNY     78  26  14 N16G29    30.00R
JAMESTOWN      SUNNY     68  23  18 N25G32    29.93R
MINOT AFB      SUNNY     73  30  20 N15       29.99R
GARRISON         N/A     75  33  21 N15G26    30.00R
WILLISTON      SUNNY     80  39  23 N9G21     30.03S
DICKINSON      SUNNY     76  37  24 N16G23    30.02S
HETTINGER      SUNNY     76  36  23 N12G22    30.04S
$$

 *****  OTHER AIRPORT OBSERVATIONS IN OUR AREA  *****

CITY           SKY/WX    TMP DP  RH WIND       PRES   REMARKS
WALHALLA       FAIR      61  34  36 N20G28    29.99R
GRAFTON AIRPOR FAIR      64  32  29 N24G32    29.95R
VALLEY CITY AR FAIR      66  28  24 N23G30    29.93R
CANDO          FAIR      64  19  17 N20G30    30.02R
CAVALIER APRT  FAIR      63  34  34 N23G36    29.96R
GWINNER        FAIR      72  28  20 N21G30    29.89R
SHEYENNE NWR     N/A     69  25  19 N15       29.95
ROLLA          FAIR      63  25  23 NE20G30   30.02R
 ***** THE ABOVE OBSERVATIONS ARE NON NWS ARE NOT QUALITY
       CONTROLLED AND MAY MIS-REPORT RAIN FOR SNOW...
$$

  *****  WEATHER ACROSS NORTHERN MINNESOTA  *****

CITY           SKY/WX    TMP DP  RH WIND       PRES   REMARKS
FLAG ISLAND    SUNNY     55  36  47 N15       29.89R
WARROAD        SUNNY     61  37  41 N15       29.90R
ROSEAU         MOSUNNY   64  34  32 N20       29.90R
HALLOCK        SUNNY     63  27  25 N20G29    29.93R
THF RVR FALLS  SUNNY     63  28  27 N21G26    29.91R
BAUDETTE       MOSUNNY   60  32  34 N21G29    29.87R
WASKISH        SUNNY     61  36  39 N14G21    29.85R
CROOKSTON      SUNNY     64  27  24 N22G35    29.90R
STEPHEN NDAWN    N/A     63  30  29 N22         N/A
GREENBUSH NDAW   N/A     61  34  36 N16         N/A
$$
  *****  WEATHER ACROSS CENTRAL AND WEST MINNESOTA  *****

CITY           SKY/WX    TMP DP  RH WIND       PRES   REMARKS
FOSSTON        SUNNY     64  25  22 NW21      29.87R
BEMIDJI        SUNNY     62  29  29 N17G25    29.83R
PARK RAPIDS    SUNNY     65  22  19 N20G26    29.79R
ELBOW LAKE     FAIR      65  29  25 NW23G33   29.81S
WADENA         SUNNY     66  30  26 N22G29    29.78R
DETROIT LAKES  SUNNY     63  27  25 N23G35    29.85R
MOORHEAD       SUNNY     68  25  19 N33G40    29.87R
FERGUS FALLS   SUNNY     66  30  26 N31G43    29.80R
MORRIS MN      SUNNY     70  27  19 N35G44    29.80R
STAPLES        SUNNY     66  18  15 N23G30    29.77R
$$
  *****  WEATHER ELSEWHERE ACROSS MINNESOTA  *****

CITY           SKY/WX    TMP DP  RH WIND       PRES   REMARKS
DULUTH         MOSUNNY   64  28  25 N17G26    29.70R
INTRNTL FALLS  MOSUNNY   58  32  37 NE18G28   29.83R
ELY            MOSUNNY   57  27  30 N14G25    29.75R
CLOQUET        MOSUNNY   64  21  19 N16G25    29.70R HAZE
WHEATON        SUNNY     70  30  23 NW24G36   29.85R
BRAINERD       SUNNY     65  22  19 N18G29    29.76R
HIBBING        MOSUNNY   61  30  31 NW23G31   29.74R
ALEXANDRIA     SUNNY     67  25  20 NW25G32   29.79R
SAINT CLOUD    SUNNY     71  26  18 N20G28    29.69R
MINNEAPOLIS    MOSUNNY   71  40  32 W15G23    29.66F
$$

  *****  WEATHER ACROSS SOUTH DAKOTA  *****

CITY           SKY/WX    TMP DP  RH WIND       PRES   REMARKS
SIOUX FALLS    PTSUNNY   72  42  34 W16G25    29.83F
BROOKINGS      MOSUNNY   72  39  30 N23G36    29.80S
WATERTOWN      SUNNY     71  30  21 N25G33    29.84R
HURON          SUNNY     76  40  27 NW24G31   29.84F
SISSETON         N/A     70  25  18 N25G38    29.84R
ABERDEEN       SUNNY     72  25  17 N30G37    29.90R
MITCHELL       SUNNY     75  45  34 NW20G26   29.87F
PIERRE         SUNNY     76  40  27 NW20G25   29.92F
MOBRIDGE       SUNNY     77  41  27 N20G28    29.92R
RAPID CITY     SUNNY     72  36  26 N18       30.07S
$$

  *****  SOME WEATHER IN NEARBY STATES *****

CITY           SKY/WX    TMP DP  RH WIND       PRES   REMARKS
GLASGOW MT     SUNNY     79  38  22 W8        30.04F
GREAT FALLS MT SUNNY     78  33  19 VRB5      30.05F
CHEYENNE WY    MOSUNNY   62  32  32 NW15G23   30.23S
SCOTTSBLUFF NE MOSUNNY   73  35  25 N14       30.10F
OMAHA NE       PTSUNNY   71  42  35 W15G25    29.91F
DES MOINES IA  PTSUNNY   69  42  37 W18G28    29.87F
DAVENPORT IA   MOSUNNY   66  40  38 W20       29.84F
CHICAGO IL     CLOUDY    64  38  38 W14       29.79F
EAU CLAIRE WI  PTSUNNY   67  37  33 W20G28    29.62F
LA CROSSE WI   CLOUDY    69  36  29 W15       29.68F
$$

  *****  SOME NATIONAL WEATHER *****

CITY           SKY/WX    TMP DP  RH WIND       PRES   REMARKS
LA GUARDIA NY  CLOUDY    53  51  93 NE9       29.83R
RALEIGH NC     CLOUDY    66  63  90 S6        29.73F
ATLANTA GA     PTSUNNY   74  55  51 NW12      29.83S
NEW ORLEANS LA MOSUNNY   76  65  68 N9        29.90F
OKLAHOMA CITY  PTSUNNY   69  45  41 S9        30.00F
ALBUQUERQUE NM MOSUNNY   73  22  14 VRB3      30.15S
SALT LAKE CITY MOSUNNY   73  30  20 N7G16     30.15F
LOS ANGELES CA CLOUDY    67  57  70 W16       29.92F
BOISE ID       SUNNY     80  26  13 S7        30.05F
SEATTLE WA     CLOUDY    71  53  52 S7        30.05S
$$

*** WEATHER ACROSS MANITOBA...SASKATCHEWAN AND ONTARIO ***
                ***ONTARIO***

CITY           SKY/WX    TMP DP  RH WIND       PRES   REMARKS
GERALDTON      LGT RAIN  41  37  87 NW10G20   29.69R
THUNDER BAY    PTSUNNY   57  34  41 N16G28    29.70R
SIOUX LOOKOUT  MOSUNNY   50  32  50 N10G22    29.86R
TORONTO        PTSUNNY   52  39  62 S5        29.80S
BIG TROUT LK   CLOUDY    36  28  75 N13G25    29.93R
PICKLE LAKE    PTSUNNY   43  32  65 N8G23     29.83R
DRYDEN         MOSUNNY   54  30  40 N15G24    29.87R
KENORA         MOSUNNY   55  30  38 N15G22    29.91R
$$
                *** MANITOBA***

CITY           SKY/WX    TMP DP  RH WIND       PRES   REMARKS
BRANDON        SUNNY     64  25  22 N17       30.03S
DAUPHIN        SUNNY     61  27  27 NE15      30.06S
ISLAND LAKE    SUNNY     48  28  46 N5G18     30.03R
PILOT MOUND      N/A     61  23  23 N20G26      N/A
THE PAS        MOSUNNY   61  27  27 NE3       30.05F
THOMPSON       SUNNY     54  19  26 N5        30.06F
WINNIPEG       SUNNY     59  34  38 N17G26    29.99R
LYNN LAKE      SUNNY     57  27  30 E7        30.04F
CHURCHILL      PTSUNNY   27  19  74 N8        30.19S WCI  18
GILLAM         MOSUNNY   41  19  42 N12       30.11S
$$
                ***SASKATCHEWAN***

CITY           SKY/WX    TMP DP  RH WIND       PRES   REMARKS
ESTEVAN        MOSUNNY   79  39  24 N14       30.03S
KINDERSLEY     MOSUNNY   84  34  16 SW16      29.96F
LLOYDMINSTER   MOSUNNY   82  39  21 S14       29.92F
PRINCE ALBERT  NOT AVBL
REGINA         MOSUNNY   79  37  22 N8        30.02S
YORKTON        SUNNY     72  32  23 N8        30.03F
N. BATTLEFORD  SUNNY     86  36  16 S9        29.94F
LA RONGE       MOSUNNY   66  34  30 NE9       29.95F
SASKATOON      PTSUNNY   84  36  17 W6        29.97F
SWIFT CURRENT  SUNNY     81  36  19 SW12G18   30.01F
$$
NOTE: THESE ARE AUTOMATED STATIONS WITH LIMITED QUALITY CONTROL
      "FAIR" INDICATES FEW OR NO CLOUDS BELOW 12,000 FEET WITH NO
      SIGNIFICANT WEATHER AND/OR OBSTRUCTIONS TO VISIBILITY.
      SKY/WX - SKY CONDITION AND SIGNIFICANT WEATHER.
      TMP - AIR TEMPERATURE.    DP   - DEWPOINT TEMPERATURE.
      RH  - RELATIVE HUMIDITY.  PRES - PRESSURE.
      HX  - HEAT INDEX.         WCI  - WIND CHILL INDEX.
$



USA.gov is the U.S. government's official web portal to all federal, state and local government web resources and services.